Hourly Weather Roundup
Issued by NWS Central Illinois

Home | Current Version | Previous Version | Text Only | Print | Product List | Glossary On
Versions: 1 2 3 4 5 6 7 8 9 10 11 12 13 14 15 16 17 18 19 20 21 22 23 24 25 26 27 28 29 30 31 32 33 34 35 36 37 38 39 40 41 42 43 44 45 46 47 48 49 50
000
NZUS43 KILX 222210
HWRILX

Area Weather Roundup
National Weather Service Lincoln IL
500 PM CDT SAT JUL 22 2017

NOTE:  "FAIR" indicates few or no clouds below 12,000 feet, with
       no sigificant weather and/or obstructions to visibility.


CITY           SKY/WX    TMP DP  RH WIND       PRES   REMARKS
Bloomington    CLOUDY    85  76  74 NW13      29.83F HX  94
Champaign      CLOUDY    87  78  74 W6        29.82S HX 100
Danville       CLOUDY    85  75  71 N3        29.81S HX  93
Decatur        MOSUNNY   92  74  55 W10G20    29.81S HX 101
Effingham      MOSUNNY   97  74  47 SW12G17   29.81S HX 108
Flora          SUNNY     96  76  51 SW14      29.80F HX 109
Galesburg      PTSUNNY   85  76  74 N6        29.82S HX  95
Jacksonville   CLOUDY    92  77  61 NW3       29.78S HX 106
Lacon          CLOUDY    83  75  75 CALM      29.81S HX  91
Lawrenceville  MOSUNNY   97  73  45 SW14G23   29.80F HX 107
Litchfield     MOSUNNY   95  77  56 SW7       29.79S HX 110
$$


CITY           SKY/WX    TMP DP  RH WIND       PRES   REMARKS
Lincoln        PTSUNNY   92  77  62 W5        29.80S HX 106
Macomb         PTSUNNY   89  78  70 N6        29.81F HX 102
Mattoon        SUNNY     94  76  55 W12       29.80F HX 106
Mt Carmel AP   MOSUNNY   93  73  52 SW16      29.80F HX 102
Olney-Noble AP MOSUNNY   95  73  49 S10G16    29.81F HX 103
Paris AP       PTSUNNY   89  80  73 CALM      29.82S HX 105
Peoria         CLOUDY    86  78  77 CALM      29.81S HX  98
Pontiac        CLOUDY    85  77  78 CALM      29.83S HX  95
Rantoul        CLOUDY    87  78  72 N7        29.82F HX 100
Robinson       MOSUNNY   92  78  63 SW9G16    29.80F HX 106
Springfield    MOSUNNY   94  79  61 W5        29.79F HX 111
Taylorville    PTSUNNY   91  76  61 CALM      29.80S HX 104
$$

...REGIONAL REPORTS...


CITY           SKY/WX    TMP DP  RH WIND       PRES   REMARKS
Chicago O`Hare PTSUNNY   86  70  58 NW5       29.80S HX  90
Kankakee       PTSUNNY   83  73  71 W5        29.83S HX  89
Moline         CLOUDY    84  73  69 CALM      29.80S HX  90
Mount Sterling PTSUNNY   93  76  56 W6        29.78S HX 105
Mount Vernon   SUNNY     98  72  42 SW16G23   29.79F HX 107
Pittsfield     SUNNY     97  76  51 SW9       29.78F HX 111
Quincy         MOSUNNY   97  73  45 W7        29.77F HX 107
Rockford       PTSUNNY   87  71  58 NW6       29.82S HX  93
$$


CITY           SKY/WX    TMP DP  RH WIND       PRES   REMARKS
Burlington     MOSUNNY   89  78  70 E6        29.78F HX 103
Cedar Rapids   CLOUDY    81  75  82 NW5       29.82R HX  87
Des Moines     MOSUNNY   91  73  55 N10       29.84R HX  99
Kirksville     MOSUNNY   95  77  55 W8        29.81S HX 109
Ottumwa        SUNNY     91  75  59 N8        29.80R HX 101
St Louis       MOSUNNY  106  68  29 W13G24    29.77S HX 113
$$


CITY           SKY/WX    TMP DP  RH WIND       PRES   REMARKS
Terre Haute    SUNNY     92  75  57 CALM      29.80F HX 103
Evansville     SUNNY     98  70  40 SW20G28   29.80R HX 105
Indianapolis   CLOUDY    86  72  62 NW9       29.82S HX  92
Lafayette      CLOUDY    82  75  79 NW5       29.82S HX  89
Madison        PTSUNNY   82  70  66 CALM      29.81F HX  86
Milwaukee      PTSUNNY   77  71  82 E8        29.81F
$$





USA.gov is the U.S. government's official web portal to all federal, state and local government web resources and services.